RH
76 72 82 95 95 94 94 94 93 91 89 88 87 87 87 86 84 79 78 76 75 75 76 79 78 79 80 83 82 78 42 38
76 76 72 76 76 95 94 92 90 88 87 86 87 86 86 84 83 81 77 78 78 78 81 83 84 84 84 85 79 74 46 41
72 67 72 74 71 74 86 88 88 87 82 88 84 64 64 64 79 81 80 81 82 82 85 87 88 82 83 84 76 46 48 44
66 72 72 71 59 70 71 67 64 65 65 70 64 71 67 66 77 85 83 83 83 84 85 84 73 50 47 62 46 52 46 47
66 71 73 70 65 67 63 63 65 66 71 70 71 69 69 66 67 63 68 74 57 58 56 54 58 53 51 55 52 50 47 45
63 70 73 75 66 65 66 62 65 64 66 74 72 68 72 72 66 68 67 58 60 57 54 61 59 56 53 52 52 47 43 42
60 69 73 72 73 70 70 71 67 69 68 69 69 70 73 69 71 62 58 57 55 57 55 51 52 50 47 47 45 44 42 38
61 68 73 70 69 70 70 74 72 78 82 83 85 78 79 67 64 61 59 56 54 52 52 48 47 47 44 46 44 40 41 45
64 69 66 69 64 61 62 60 68 78 89 85 82 78 77 71 64 60 56 55 59 54 51 49 43 40 43 40 39 40 41 50
64 72 80 78 78 69 74 72 85 89 90 86 80 80 74 67 58 67 58 54 50 56 48 59 45 42 45 41 40 41 44 52
79 81 84 88 89 94 96 89 83 84 81 67 69 68 62 57 68 55 55 52 51 48 46 51 45 45 42 39 45 37 44 42
86 87 93 95 97 95 92 81 64 61 62 51 54 50 54 52 50 54 50 50 52 52 57 52 52 54 39 40 43 37 52 47
91 97 97 96 90 74 62 63 57 50 44 49 50 49 51 56 51 53 54 54 60 60 54 57 48 55 49 40 41 58 60 46
90 86 87 76 60 53 50 50 49 48 49 54 52 55 55 53 58 56 59 53 60 62 62 54 50 57 55 48 39 40 47 48
64 62 64 60 57 55 54 53 54 50 50 47 53 57 58 60 62 61 62 57 54 60 62 65 56 57 67 58 51 45 55 42
51 52 51 55 56 52 52 45 44 54 54 52 50 61 62 60 61 62 62 58 59 58 56 65 66 59 58 58 67 74 75 64
59 56 55 56 58 57 54 59 59 57 57 61 61 62 63 61 62 62 60 56 59 63 62 62 60 64 60 65 67 59 60 71
59 54 55 59 59 61 61 62 58 51 53 53 54 56 58 63 59 62 62 61 61 60 65 68 65 65 62 63 62 62 60 67
54 53 56 56 57 55 55 53 48 44 44 44 49 51 56 60 65 65 60 64 66 66 68 69 70 69 70 68 70 71 69 72
53 54 51 46 47 48 47 44 40 41 46 46 50 52 52 59 64 66 67 68 69 71 73 72 75 80 78 74 74 71 72 83
Wind_Speed
8 9 9 9 9 9 9 9 9 9 9 8 8 8 8 7 7 6 7 7 7 8 7 7 7 7 7 7 7 7 7 6
7 7 7 7 8 7 7 8 8 8 8 8 8 8 7 7 5 5 5 6 7 7 6 7 7 8 8 8 6 3 8 6
6 6 6 6 7 7 7 8 7 6 7 6 6 4 4 4 5 4 5 6 6 7 7 8 8 6 8 8 5 5 6 5
7 6 6 6 5 6 4 4 4 4 4 4 2 3 2 1 2 3 4 6 6 7 7 6 4 5 5 5 5 6 5 5
8 6 5 4 3 3 3 2 2 2 3 2 2 2 1 2 1 0 1 4 3 4 4 4 6 5 5 4 5 5 4 5
8 5 4 4 3 2 2 1 1 1 1 3 3 3 3 2 1 1 1 3 3 3 3 3 5 5 6 6 6 5 5 4
8 7 6 4 4 2 1 1 2 3 3 4 3 4 3 1 2 2 3 2 2 3 3 3 4 5 4 5 5 6 7 5
6 7 6 5 4 4 4 3 3 2 3 4 5 2 1 1 3 3 4 4 4 4 3 3 4 4 5 6 6 6 6 6
9 10 9 10 9 8 7 7 6 5 3 3 3 1 2 4 4 4 4 4 5 4 4 3 4 6 6 6 7 8 6 6
12 11 10 11 10 8 7 8 4 4 4 5 4 4 6 5 4 5 5 5 5 4 4 2 5 5 5 7 7 7 7 5
14 13 11 10 11 7 7 4 2 3 4 4 6 6 8 7 4 5 4 4 5 5 5 5 6 6 7 8 6 8 6 1
14 10 9 6 9 3 5 1 2 2 3 5 7 6 7 6 5 5 5 4 5 5 6 5 5 6 8 7 8 7 3 0
14 13 7 9 3 4 5 3 2 3 4 6 7 7 6 6 4 4 4 5 5 5 5 7 6 5 6 6 6 4 5 2
7 10 10 8 8 6 3 3 3 3 4 5 5 5 5 5 5 5 5 4 5 5 5 5 5 5 5 6 4 4 2 3
10 9 8 6 6 5 4 4 3 4 3 3 5 5 6 5 5 4 3 2 3 5 5 6 6 5 5 4 5 4 7 3
10 9 10 8 6 4 2 1 2 3 2 3 3 4 5 3 3 2 1 1 3 4 3 4 5 6 5 2 5 5 5 7
7 9 7 5 5 5 3 5 4 3 2 1 1 1 1 1 3 3 3 2 3 4 4 4 3 5 4 4 5 5 6 6
6 7 8 7 7 8 8 7 4 2 3 3 2 3 3 5 5 5 5 4 4 3 4 5 5 5 4 5 5 5 7 7
5 7 7 6 7 7 7 5 4 4 4 4 5 3 4 7 8 7 4 4 4 4 5 6 6 6 6 5 5 7 8 9
6 7 7 5 5 6 4 2 2 2 4 4 4 5 6 7 6 5 5 6 6 5 5 5 6 6 8 6 6 6 6 7
Wind_Direction
146 152 150 138 135 138 135 129 126 135 133 128 117 113 101 102 96 90 87 88 79 74 61 56 41 46 41 28 28 30 26 18
156 158 161 149 149 138 134 135 144 136 135 126 121 111 106 95 94 83 72 63 48 45 34 29 27 27 28 22 23 7 14 10
170 169 160 151 153 150 146 147 133 141 133 125 123 121 124 125 76 54 44 38 33 20 18 13 10 37 25 20 349 15 360 360
186 176 164 162 156 148 133 137 146 156 153 142 140 140 158 163 79 43 44 31 24 20 22 23 14 17 14 9 5 355 357 345
181 175 162 143 125 126 142 153 154 153 172 171 178 224 233 244 220 42 37 40 14 14 29 39 28 15 21 18 4 352 351 344
171 152 110 84 54 59 69 109 184 215 235 235 245 247 248 281 305 23 61 53 54 59 55 48 51 48 35 22 15 3 353 339
173 151 119 102 84 75 59 321 309 306 300 293 297 308 319 28 81 57 52 55 50 62 56 59 53 42 25 11 4 353 344 335
148 124 114 101 72 38 25 357 338 312 322 328 314 308 27 50 90 86 62 50 63 56 52 31 16 10 5 355 347 343 340 338
134 120 112 98 90 73 54 29 34 37 11 31 89 99 86 83 82 73 65 67 47 62 30 22 12 348 347 339 331 330 331 333
127 118 108 94 80 68 53 39 35 72 47 58 49 72 88 91 87 68 74 57 56 35 18 6 352 337 331 327 319 315 324 331
126 126 116 97 78 69 67 39 51 75 86 112 107 97 95 96 92 84 65 67 41 14 13 355 340 341 331 322 311 309 307 329
114 101 90 82 88 91 83 263 118 96 108 107 99 90 92 95 88 71 51 47 37 20 7 357 339 346 326 312 311 301 289 57
137 136 148 121 134 135 155 192 142 99 80 74 72 69 72 73 77 71 56 48 43 25 355 346 335 337 305 308 288 262 177 321
130 130 156 152 155 175 150 150 105 76 62 67 75 71 67 69 59 56 47 43 31 12 359 332 318 344 326 299 303 241 265 268
147 141 136 148 171 131 109 106 129 172 148 93 59 53 60 63 69 69 68 26 359 345 344 346 329 328 343 307 304 301 334 303
131 128 134 136 136 141 157 83 63 52 46 88 74 45 64 67 99 118 95 338 330 334 344 342 326 322 320 300 310 312 297 298
130 120 104 105 104 93 87 71 65 69 70 98 31 20 357 237 213 216 269 291 307 316 322 325 314 300 304 317 312 291 277 265
106 101 93 82 82 73 83 84 85 66 27 344 308 290 274 247 243 253 264 263 270 280 290 290 294 272 266 267 270 293 294 297
115 100 88 87 92 98 96 104 84 30 354 327 310 281 256 251 241 250 275 286 283 271 264 270 270 268 277 283 279 282 292 294
127 124 123 120 123 112 121 103 29 339 283 279 274 267 268 268 261 273 271 256 247 246 258 273 278 272 275 279 287 288 298 290